Regional Weather Roundup
Issued by NWS

Home | Current Version | Previous Version | Text Only | Print | Product List | Glossary Off
Versions: 1 2 3 4 5 6 7 8 9 10 11 12 13 14 15 16 17 18 19 20 21 22 23 24 25 26 27

000
ASUS43 KDMX 221007
RWRIA

WEATHER ROUNDUP FOR IOWA
NATIONAL WEATHER SERVICE DES MOINES IA
500 AM CDT TUE APR 22 2014

NOTE: "FAIR" INDICATES FEW OR NO CLOUDS BELOW 12,000 FEET WITH NO
SIGNIFICANT WEATHER AND/OR OBSTRUCTIONS TO VISIBILITY.

* - THESE STATIONS ARE NOT NWS STATIONS...THUS NOT UNDER NWS
QUALITY CONTROL.  THEY ALSO DO NOT REPORT WEATHER SUCH
AS PRECIPITATION OR FOG.

IAZ001>003-012>014-020>022-031>034-043>046-221100-
   NORTHWEST IOWA

CITY           SKY/WX    TMP DP  RH WIND       PRES   REMARKS
CARROLL *      CLEAR     36  30  80 N8        30.14S WCI  29
CHEROKEE *     CLEAR     32  28  86 CALM      30.15F
DENISON *      CLEAR     37  32  81 CALM      30.14F
LE MARS *      CLEAR     30  28  93 CALM      30.16F
ORANGE CITY *  CLEAR     36  28  75 CALM      30.16S
SHELDON *      CLEAR     28  25  86 CALM      30.15R
SIOUX CITY     CLEAR     32  26  78 W5        30.17S WCI  27
SPENCER        CLEAR     30  26  85 NW8       30.15R WCI  22
STORM LAKE *   CLEAR     39  28  65 N7        30.15S WCI  34
$$

IAZ055>058-069>071-079>083-090>094-221100-
   SOUTHWEST IOWA

CITY           SKY/WX    TMP DP  RH WIND       PRES   REMARKS
ATLANTIC *     CLEAR     37  32  81 N6        30.14S WCI  33
AUDUBON *      CLEAR     39  28  65 N3        30.14F
CLARINDA *     CLEAR     41  32  70 N6        30.16S
COUNCIL BLFS * CLEAR     43  34  70 N7        30.15S
CRESTON *      CLEAR     43  30  61 N13       30.12S
HARLAN  *      CLEAR     37  32  81 N3        30.18S
LAMONI         CLEAR     45  32  60 N9        30.11R
RED OAK *      CLEAR     39  34  81 N6        30.15S WCI  35
SHENANDOAH *   CLEAR     41  34  75 NE5       30.16S
$$

IAZ047>049-059>061-072>074-084-221100-
   CENTRAL IOWA

CITY           SKY/WX    TMP DP  RH WIND       PRES   REMARKS
AMES           CLEAR     41  31  67 N8        30.12R
ANKENY *       CLEAR     43  32  65 N9        30.12R
CHARITON *     CLEAR     43  32  65 N10       30.10S
DES MOINES     CLEAR     47  31  53 N9        30.12R
GRINNELL*      CLEAR     39  32  75 N12       30.09R WCI  32
KNOXVILLE *    CLEAR     45  32  61 N10       30.10R
MARSHALLTOWN   CLEAR     36  31  82 NW6       30.09R WCI  31
NEWTON *       CLEAR     41  32  70 N13       30.10R
PELLA *        CLEAR     43  34  70 N10       30.11R
PERRY *          N/A     39  30  70 NW7       30.13F WCI  34
$$

IAZ004>006-015-016-023>025-035-036-221100-
   NORTH CENTRAL IOWA

CITY           SKY/WX    TMP DP  RH WIND       PRES   REMARKS
ALGONA *       CLEAR     37  30  75 NW8       30.13S WCI  31
CLARION *      CLEAR     36  32  87 NW8       30.12S WCI  29
ESTHERVILLE    CLEAR     32  28  85 NW9       30.13R WCI  24
FORT DODGE *   CLEAR     39  30  70 NW3       30.13F
MASON CITY     CLEAR     34  31  88 W9        30.12R WCI  27
FOREST CITY *  CLEAR     36  32  87 W6        30.10S WCI  31
IOWA FALLS *     N/A     39  32  75 NW7       30.11S WCI  34
$$

IAZ007>011-017>019-026>030-037>042-050>054-066-221100-
   NORTHEAST IOWA

CITY           SKY/WX    TMP DP  RH WIND       PRES   REMARKS
CEDAR RAPIDS   CLEAR     42  32  67 N17       30.04R
CHARLES CITY * CLEAR     37  32  81 NW9       30.09S WCI  31
CLINTON *      CLEAR     37  30  75 NW10      30.01R WCI  30
DECORAH *      CLEAR     39  30  70 NW9       30.05S WCI  33
DUBUQUE        CLEAR     42  33  70 N14       30.00R
MONTICELLO *   CLEAR     43  32  65 NW15G22   30.03R
OELWEIN *      CLEAR    N/A N/A N/A NW9       30.07S
WATERLOO       CLEAR     38  31  76 NW9       30.08R WCI  31
$$

IAZ064-065-067-068-078-221100-
   EAST CENTRAL IOWA

CITY           SKY/WX    TMP DP  RH WIND       PRES   REMARKS
DAVENPORT      CLEAR     43  36  76 NW9       30.00R
IOWA CITY      CLEAR     45  37  73 NW14      30.05R
MT. PLEASANT * CLEAR     46  36  66 NW9       30.03R
MUSCATINE *    CLEAR     46  36  66 N13       30.02R
QUAD CITIES    CLEAR     47  36  65 NW9       29.99R
$$

IAZ062-063-075>077-085>089-095>099-221100-
   SOUTHEAST IOWA

CITY           SKY/WX    TMP DP  RH WIND       PRES   REMARKS
BURLINGTON     CLEAR     47  38  71 NW12      30.01R
FAIRFIELD *    CLEAR     43  36  75 NW12      30.06R
FORT MADISON * CLEAR     46  39  76 NW13      30.03R
KEOKUK *       CLEAR     46  39  76 NW9       30.02R
OSKALOOSA *      N/A     43  34  70 N16       30.08R
CENTERVILLE *  CLEAR     45  36  70 N12       30.10R
OTTUMWA        CLEAR     43  33  68 N15       30.07R
WASHINGTON *   CLEAR     45  36  70 NW16      30.04R
$$

ABBREVIATIONS USED IN REMARKS
   TC - TEMPERATURES IN CELSIUS
  WCI - WIND CHILL INDEX
   HX - HEAT INDEX
  VSB - VISIBILITY
$$




USA.gov is the U.S. government's official web portal to all federal, state and local government web resources and services.